TimeEST,TemperatureF,Dew PointF,Humidity,Sea Level PressureIn,VisibilityMPH,Wind Direction,Wind SpeedMPH,Gust SpeedMPH,PrecipitationIn,Events,Conditions,WindDirDegrees,DateUTC
12:54 AM,37.0,21.9,54,30.23,10.0,North,15.0,23.0,N/A,,Partly Cloudy,350,2013-03-09 05:54:00
1:54 AM,37.0,21.0,52,30.24,10.0,NNW,11.5,-,N/A,,Clear,330,2013-03-09 06:54:00
2:54 AM,36.0,21.0,55,30.22,10.0,NNW,10.4,-,N/A,,Clear,340,2013-03-09 07:54:00
3:54 AM,35.1,21.0,57,30.23,10.0,NNW,10.4,-,N/A,,Clear,330,2013-03-09 08:54:00
4:54 AM,35.1,19.9,54,30.25,10.0,NNW,11.5,-,N/A,,Clear,340,2013-03-09 09:54:00
5:54 AM,36.0,19.9,52,30.26,10.0,NNW,13.8,20.7,N/A,,Clear,340,2013-03-09 10:54:00
6:54 AM,36.0,19.9,52,30.28,10.0,North,8.1,-,N/A,,Partly Cloudy,10,2013-03-09 11:54:00
7:54 AM,39.0,19.9,46,30.29,10.0,North,11.5,-,N/A,,Scattered Clouds,350,2013-03-09 12:54:00
8:54 AM,42.1,19.9,41,30.30,10.0,North,10.4,17.3,N/A,,Partly Cloudy,350,2013-03-09 13:54:00
9:54 AM,46.0,19.9,35,30.30,10.0,North,9.2,-,N/A,,Clear,350,2013-03-09 14:54:00
10:54 AM,51.1,19.9,29,30.30,10.0,NNE,12.7,17.3,N/A,,Clear,30,2013-03-09 15:54:00
11:54 AM,55.0,19.0,24,30.30,10.0,North,10.4,-,N/A,,Clear,360,2013-03-09 16:54:00
12:54 PM,57.9,17.1,20,30.26,10.0,NE,8.1,-,N/A,,Partly Cloudy,40,2013-03-09 17:54:00
1:54 PM,59.0,15.1,18,30.23,10.0,NE,6.9,-,N/A,,Scattered Clouds,40,2013-03-09 18:54:00
2:54 PM,61.0,17.1,18,30.23,10.0,East,3.5,-,N/A,,Scattered Clouds,90,2013-03-09 19:54:00
3:54 PM,61.0,19.0,20,30.23,10.0,East,6.9,-,N/A,,Mostly Cloudy,100,2013-03-09 20:54:00
4:54 PM,60.1,19.0,20,30.24,10.0,East,5.8,-,N/A,,Mostly Cloudy,100,2013-03-09 21:54:00
5:54 PM,54.0,19.0,25,30.26,10.0,East,6.9,-,N/A,,Partly Cloudy,80,2013-03-09 22:54:00
6:54 PM,51.1,19.0,28,30.27,10.0,East,4.6,-,N/A,,Partly Cloudy,90,2013-03-09 23:54:00
7:54 PM,46.0,21.9,39,30.28,10.0,ENE,6.9,-,N/A,,Partly Cloudy,70,2013-03-10 00:54:00
8:54 PM,46.9,19.9,34,30.29,10.0,ENE,3.5,-,N/A,,Partly Cloudy,60,2013-03-10 01:54:00
9:54 PM,41.0,26.1,55,30.31,10.0,East,3.5,-,N/A,,Clear,80,2013-03-10 02:54:00
10:54 PM,39.9,28.9,65,30.30,10.0,Calm,Calm,-,N/A,,Clear,0,2013-03-10 03:54:00
11:54 PM,37.0,28.9,73,30.32,10.0,Calm,Calm,-,N/A,,Partly Cloudy,0,2013-03-10 04:54:00